| time (UTC) | temp F | wind direction | speed MPH | gust MPH | rain 1hr in | rain 24hr in | rain mn in | humidity % | barometer mb |
| 20260505004501 | 77 | 126 | 0.0 | 0.0 | 0.00 | 0.00 | 0.00 | 56 | 1001.7 |
| 20260505003957 | 78 | 126 | 0.0 | 0.0 | 0.00 | 0.00 | 0.00 | 55 | 1001.7 |
| 20260505003455 | 79 | 126 | 0.0 | 0.0 | 0.00 | 0.00 | 0.00 | 53 | 1001.6 |
| 20260505002950 | 79 | 126 | 0.0 | 0.0 | 0.00 | 0.00 | 0.00 | 52 | 1001.5 |
| 20260505002446 | 80 | 126 | 0.0 | 0.0 | 0.00 | 0.00 | 0.00 | 51 | 1001.5 |
| 20260505001945 | 80 | 127 | 0.0 | 0.0 | 0.00 | 0.00 | 0.00 | 50 | 1001.5 |
| 20260505001442 | 79 | 127 | 0.0 | 0.0 | 0.00 | 0.00 | 0.00 | 50 | 1001.4 |
| 20260505000939 | 79 | 127 | 0.0 | 0.0 | 0.00 | 0.00 | 0.00 | 50 | 1001.5 |
| 20260505000437 | 80 | 136 | 1.0 | 1.0 | 0.00 | 0.00 | 0.00 | 49 | 1001.5 |
| 20260504235934 | 80 | 132 | 1.0 | 2.0 | 0.00 | 0.00 | 0.00 | 48 | 1001.4 |
| 20260504235431 | 80 | 135 | 0.0 | 2.0 | 0.00 | 0.00 | 0.00 | 48 | 1001.5 |
| 20260504234927 | 80 | 148 | 2.0 | 5.0 | 0.00 | 0.00 | 0.00 | 47 | 1001.4 |
| 20260504234425 | 80 | 144 | 1.0 | 6.0 | 0.00 | 0.00 | 0.00 | 47 | 1001.4 |
| 20260504233921 | 80 | 139 | 2.0 | 3.0 | 0.00 | 0.00 | 0.00 | 47 | 1001.6 |
| 20260504233417 | 80 | 128 | 1.0 | 2.0 | 0.00 | 0.00 | 0.00 | 48 | 1001.5 |
| 20260504232914 | 81 | 139 | 2.0 | 3.0 | 0.00 | 0.00 | 0.00 | 46 | 1001.4 |
| 20260504232411 | 81 | 133 | 0.0 | 2.0 | 0.00 | 0.00 | 0.00 | 46 | 1001.4 |
| 20260504231908 | 81 | 153 | 3.0 | 8.0 | 0.00 | 0.00 | 0.00 | 45 | 1001.5 |
| 20260504231404 | 81 | 168 | 3.0 | 6.0 | 0.00 | 0.00 | 0.00 | 46 | 1001.6 |
| 20260504230901 | 82 | 144 | 3.0 | 5.0 | 0.00 | 0.00 | 0.00 | 46 | 1001.6 |
| 20260504230358 | 81 | 15 | 1.0 | 3.0 | 0.00 | 0.00 | 0.00 | 45 | 1001.4 |
| 20260504225857 | 81 | 263 | 3.0 | 5.0 | 0.00 | 0.00 | 0.00 | 44 | 1001.6 |
| 20260504225353 | 81 | 184 | 3.0 | 3.0 | 0.00 | 0.00 | 0.00 | 44 | 1001.6 |
| 20260504224851 | 81 | 147 | 3.0 | 5.0 | 0.00 | 0.00 | 0.00 | 44 | 1001.6 |
| 20260504224347 | 80 | 147 | 1.0 | 2.0 | 0.00 | 0.00 | 0.00 | 45 | 1001.7 |
| 20260504223844 | 80 | 147 | 1.0 | 5.0 | 0.00 | 0.00 | 0.00 | 45 | 1001.5 |
| 20260504223339 | 80 | 135 | 1.0 | 5.0 | 0.00 | 0.00 | 0.00 | 45 | 1001.7 |
| 20260504222836 | 80 | 149 | 2.0 | 3.0 | 0.00 | 0.00 | 0.00 | 46 | 1001.7 |
| 20260504222333 | 80 | 139 | 1.0 | 3.0 | 0.00 | 0.00 | 0.00 | 45 | 1001.8 |
| 20260504221832 | 80 | 177 | 3.0 | 5.0 | 0.00 | 0.00 | 0.00 | 45 | 1001.9 |
| 20260504221328 | 80 | 151 | 2.0 | 2.0 | 0.00 | 0.00 | 0.00 | 46 | 1001.8 |
| 20260504220825 | 80 | 159 | 3.0 | 5.0 | 0.00 | 0.00 | 0.00 | 45 | 1001.6 |
| 20260504220322 | 80 | 130 | 1.0 | 5.0 | 0.00 | 0.00 | 0.00 | 44 | 1002.0 |
| 20260504215819 | 80 | 243 | 3.0 | 3.0 | 0.00 | 0.00 | 0.00 | 44 | 1001.8 |
| 20260504215315 | 80 | 180 | 3.0 | 8.0 | 0.00 | 0.00 | 0.00 | 45 | 1001.8 |
| 20260504214811 | 81 | 145 | 2.0 | 7.0 | 0.00 | 0.00 | 0.00 | 43 | 1001.9 |
| 20260504214309 | 81 | 289 | 4.0 | 6.0 | 0.00 | 0.00 | 0.00 | 42 | 1001.8 |
| 20260504213805 | 81 | 191 | 3.0 | 8.0 | 0.00 | 0.00 | 0.00 | 41 | 1002.0 |
| 20260504213301 | 81 | 123 | 1.0 | 11.0 | 0.00 | 0.00 | 0.00 | 40 | 1001.9 |
| 20260504212758 | 82 | 282 | 2.0 | 10.0 | 0.00 | 0.00 | 0.00 | 42 | 1001.8 |
| 20260504212248 | 82 | 197 | 5.0 | 7.0 | 0.00 | 0.00 | 0.00 | 42 | 1001.9 |
| 20260504211746 | 82 | 151 | 5.0 | 7.0 | 0.00 | 0.00 | 0.00 | 44 | 1001.9 |
| 20260504211242 | 82 | 132 | 2.0 | 7.0 | 0.00 | 0.00 | 0.00 | 42 | 1001.9 |
| 20260504210740 | 82 | 125 | 5.0 | 8.0 | 0.00 | 0.00 | 0.00 | 43 | 1001.9 |
| 20260504210237 | 82 | 241 | 3.0 | 6.0 | 0.00 | 0.00 | 0.00 | 42 | 1002.0 |
| 20260504205734 | 82 | 275 | 5.0 | 8.0 | 0.00 | 0.00 | 0.00 | 41 | 1002.0 |
| 20260504205232 | 82 | 215 | 3.0 | 7.0 | 0.00 | 0.00 | 0.00 | 43 | 1002.0 |
| 20260504204730 | 82 | 149 | 2.0 | 6.0 | 0.00 | 0.00 | 0.00 | 44 | 1002.0 |
| 20260504204228 | 82 | 164 | 7.0 | 8.0 | 0.00 | 0.00 | 0.00 | 44 | 1002.0 |
| 20260504203727 | 82 | 139 | 1.0 | 6.0 | 0.00 | 0.00 | 0.00 | 44 | 1002.3 |
| 20260504203224 | 82 | 208 | 4.0 | 7.0 | 0.00 | 0.00 | 0.00 | 43 | 1002.2 |
| 20260504202724 | 82 | 191 | 3.0 | 6.0 | 0.00 | 0.00 | 0.00 | 42 | 1002.4 |
| 20260504202221 | 82 | 211 | 3.0 | 7.0 | 0.00 | 0.00 | 0.00 | 43 | 1002.0 |
| 20260504201718 | 82 | 153 | 3.0 | 10.0 | 0.00 | 0.00 | 0.00 | 42 | 1002.4 |
| 20260504201215 | 81 | 195 | 4.0 | 7.0 | 0.00 | 0.00 | 0.00 | 43 | 1002.4 |
| 20260504200713 | 80 | 123 | 1.0 | 6.0 | 0.00 | 0.00 | 0.00 | 44 | 1002.4 |
| 20260504200209 | 81 | 171 | 3.0 | 10.0 | 0.00 | 0.00 | 0.00 | 43 | 1002.6 |
| 20260504195705 | 81 | 158 | 5.0 | 8.0 | 0.00 | 0.00 | 0.00 | 43 | 1002.4 |
| 20260504195201 | 81 | 120 | 1.0 | 6.0 | 0.00 | 0.00 | 0.00 | 43 | 1002.3 |
| 20260504194659 | 81 | 212 | 4.0 | 10.0 | 0.00 | 0.00 | 0.00 | 43 | 1002.4 |
| 20260504194154 | 81 | 172 | 2.0 | 7.0 | 0.00 | 0.00 | 0.00 | 45 | 1002.4 |
| 20260504193651 | 81 | 137 | 3.0 | 6.0 | 0.00 | 0.00 | 0.00 | 44 | 1002.3 |
| 20260504193149 | 81 | 243 | 3.0 | 11.0 | 0.00 | 0.00 | 0.00 | 43 | 1002.4 |
| 20260504192647 | 80 | 147 | 4.0 | 5.0 | 0.00 | 0.00 | 0.00 | 44 | 1002.2 |
| 20260504192145 | 79 | 147 | 3.0 | 8.0 | 0.00 | 0.00 | 0.00 | 44 | 1002.6 |
| 20260504191643 | 79 | 263 | 4.0 | 11.0 | 0.00 | 0.00 | 0.00 | 43 | 1002.7 |
| 20260504191138 | 79 | 182 | 2.0 | 10.0 | 0.00 | 0.00 | 0.00 | 43 | 1002.7 |
| 20260504190635 | 78 | 151 | 3.0 | 9.0 | 0.00 | 0.00 | 0.00 | 44 | 1002.7 |
| 20260504190132 | 79 | 305 | 8.0 | 11.0 | 0.00 | 0.00 | 0.00 | 43 | 1002.6 |
| 20260504185628 | 79 | 183 | 4.0 | 8.0 | 0.00 | 0.00 | 0.00 | 43 | 1002.7 |
| 20260504185125 | 78 | 156 | 2.0 | 8.0 | 0.00 | 0.00 | 0.00 | 43 | 1002.8 |
| 20260504184621 | 78 | 146 | 5.0 | 9.0 | 0.00 | 0.00 | 0.00 | 44 | 1002.7 |
| 20260504184116 | 77 | 123 | 3.0 | 5.0 | 0.00 | 0.00 | 0.00 | 43 | 1002.6 |
| 20260504183613 | 78 | 189 | 4.0 | 7.0 | 0.00 | 0.00 | 0.00 | 44 | 1002.9 |
| 20260504183111 | 78 | 176 | 3.0 | 10.0 | 0.00 | 0.00 | 0.00 | 44 | 1002.7 |
| 20260504182608 | 78 | 173 | 7.0 | 13.0 | 0.00 | 0.00 | 0.00 | 45 | 1002.9 |
| 20260504182105 | 77 | 179 | 5.0 | 7.0 | 0.00 | 0.00 | 0.00 | 46 | 1002.7 |
| 20260504181603 | 77 | 194 | 3.0 | 10.0 | 0.00 | 0.00 | 0.00 | 44 | 1002.9 |
| 20260504181100 | 77 | 164 | 6.0 | 8.0 | 0.00 | 0.00 | 0.00 | 43 | 1003.0 |
| 20260504180559 | 77 | 153 | 2.0 | 9.0 | 0.00 | 0.00 | 0.00 | 45 | 1003.0 |
| 20260504180058 | 77 | 133 | 2.0 | 6.0 | 0.00 | 0.00 | 0.00 | 45 | 1002.8 |
| 20260504175555 | 77 | 180 | 2.0 | 10.0 | 0.00 | 0.00 | 0.00 | 45 | 1002.9 |
| 20260504175051 | 77 | 178 | 3.0 | 8.0 | 0.00 | 0.00 | 0.00 | 45 | 1003.0 |
| 20260504174549 | 76 | 230 | 3.0 | 5.0 | 0.00 | 0.00 | 0.00 | 45 | 1003.1 |
| 20260504174046 | 76 | 148 | 5.0 | 14.0 | 0.00 | 0.00 | 0.00 | 46 | 1003.2 |
| 20260504173542 | 76 | 156 | 3.0 | 6.0 | 0.00 | 0.00 | 0.00 | 46 | 1003.3 |
| 20260504173040 | 75 | 168 | 2.0 | 6.0 | 0.00 | 0.00 | 0.00 | 45 | 1003.5 |
| 20260504172536 | 75 | 283 | 5.0 | 8.0 | 0.00 | 0.00 | 0.00 | 46 | 1003.3 |
| 20260504172033 | 75 | 163 | 3.0 | 6.0 | 0.00 | 0.00 | 0.00 | 47 | 1003.3 |
| 20260504171530 | 76 | 209 | 3.0 | 5.0 | 0.00 | 0.00 | 0.00 | 45 | 1003.1 |
| 20260504171027 | 76 | 211 | 3.0 | 5.0 | 0.00 | 0.00 | 0.00 | 48 | 1003.2 |
| 20260504170522 | 76 | 121 | 3.0 | 6.0 | 0.00 | 0.00 | 0.00 | 47 | 1003.3 |
| 20260504160443 | 72 | 185 | 5.0 | 6.0 | 0.00 | 0.00 | 0.00 | 52 | 1003.6 |
| 20260504150906 | 70 | 112 | 4.0 | 11.0 | 0.00 | 0.00 | 0.00 | 55 | 1004.1 |
| 20260504150403 | 70 | 158 | 3.0 | 5.0 | 0.00 | 0.00 | 0.00 | 55 | 1004.1 |
| 20260504141333 | 66 | 145 | 3.0 | 6.0 | 0.00 | 0.00 | 0.00 | 60 | 1004.5 |
| 20260504140830 | 66 | 140 | 2.0 | 2.0 | 0.00 | 0.00 | 0.00 | 61 | 1004.2 |
| 20260504140325 | 65 | 142 | 1.0 | 2.0 | 0.00 | 0.00 | 0.00 | 61 | 1004.1 |
| 20260504130754 | 63 | 133 | 1.0 | 2.0 | 0.00 | 0.00 | 0.00 | 67 | 1004.3 |
| 20260504130250 | 62 | 128 | 1.0 | 2.0 | 0.00 | 0.00 | 0.00 | 67 | 1004.3 |
| 20260504120214 | 59 | 100 | 0.0 | 0.0 | 0.00 | 0.00 | 0.00 | 75 | 1004.4 |
| 20260504110641 | 53 | 101 | 0.0 | 0.0 | 0.00 | 0.00 | 0.00 | 94 | 1004.6 |
| 20260504110137 | 53 | 101 | 0.0 | 0.0 | 0.00 | 0.00 | 0.00 | 93 | 1004.3 |
| 20260504100557 | 53 | 89 | 0.0 | 0.0 | 0.00 | 0.00 | 0.00 | 91 | 1005.1 |
| 20260504081951 | 55 | 89 | 0.0 | 0.0 | 0.00 | 0.00 | 0.00 | 86 | 1005.8 |
| 20260504081448 | 56 | 89 | 0.0 | 0.0 | 0.00 | 0.00 | 0.00 | 84 | 1005.7 |
| 20260504080944 | 57 | 89 | 0.0 | 0.0 | 0.00 | 0.00 | 0.00 | 82 | 1005.9 |
| 20260504080441 | 57 | 89 | 0.0 | 0.0 | 0.00 | 0.00 | 0.00 | 81 | 1005.8 |
| 20260504070409 | 60 | 89 | 0.0 | 0.0 | 0.00 | 0.00 | 0.00 | 73 | 1006.6 |
| 20260504050253 | 60 | 107 | 0.0 | 0.0 | 0.00 | 0.00 | 0.00 | 83 | 1008.2 |
| 20260504045751 | 60 | 107 | 0.0 | 0.0 | 0.00 | 0.00 | 0.00 | 82 | 1008.2 |
| 20260504045245 | 60 | 108 | 1.0 | 2.0 | 0.00 | 0.00 | 0.00 | 82 | 1008.0 |
| 20260504044743 | 60 | 93 | 2.0 | 2.0 | 0.00 | 0.00 | 0.00 | 83 | 1007.9 |
| 20260504044240 | 60 | 97 | 0.0 | 2.0 | 0.00 | 0.00 | 0.00 | 84 | 1008.1 |
| 20260504043737 | 60 | 106 | 0.0 | 0.0 | 0.00 | 0.00 | 0.00 | 84 | 1008.0 |
| 20260504043234 | 60 | 120 | 0.0 | 0.0 | 0.00 | 0.00 | 0.00 | 84 | 1008.2 |
| 20260504042732 | 60 | 120 | 0.0 | 0.0 | 0.00 | 0.00 | 0.00 | 83 | 1008.1 |
| 20260504042228 | 61 | 120 | 0.0 | 0.0 | 0.00 | 0.00 | 0.00 | 80 | 1008.0 |
| 20260504041724 | 61 | 120 | 0.0 | 0.0 | 0.00 | 0.00 | 0.00 | 80 | 1008.0 |
| 20260504041220 | 61 | 120 | 0.0 | 0.0 | 0.00 | 0.00 | 0.00 | 79 | 1007.8 |
| 20260504040717 | 61 | 120 | 0.0 | 0.0 | 0.00 | 0.00 | 0.00 | 77 | 1008.0 |
| 20260504040214 | 60 | 120 | 0.0 | 0.0 | 0.00 | 0.00 | 0.00 | 81 | 1007.8 |
| 20260504035710 | 61 | 120 | 0.0 | 0.0 | 0.00 | 0.00 | 0.00 | 81 | 1007.8 |
| 20260504035208 | 61 | 120 | 0.0 | 0.0 | 0.00 | 0.00 | 0.00 | 80 | 1008.0 |
| 20260504034705 | 61 | 120 | 0.0 | 0.0 | 0.00 | 0.00 | 0.00 | 81 | 1008.0 |
| 20260504034202 | 61 | 126 | 0.0 | 0.0 | 0.00 | 0.00 | 0.00 | 81 | 1008.0 |
| 20260504033700 | 61 | 126 | 0.0 | 0.0 | 0.00 | 0.00 | 0.00 | 81 | 1007.9 |
| 20260504033157 | 61 | 126 | 0.0 | 0.0 | 0.00 | 0.00 | 0.00 | 80 | 1008.1 |
| 20260504032653 | 61 | 127 | 1.0 | 1.0 | 0.00 | 0.00 | 0.00 | 79 | 1008.1 |
| 20260504032151 | 61 | 134 | 0.0 | 0.0 | 0.00 | 0.00 | 0.00 | 78 | 1007.9 |
| 20260504031648 | 62 | 136 | 2.0 | 3.0 | 0.00 | 0.00 | 0.00 | 76 | 1008.0 |
| 20260504031144 | 62 | 111 | 0.0 | 0.0 | 0.00 | 0.00 | 0.00 | 75 | 1008.0 |
| 20260504030640 | 63 | 111 | 0.0 | 1.0 | 0.00 | 0.00 | 0.00 | 74 | 1008.2 |
| 20260504030137 | 63 | 110 | 0.0 | 1.0 | 0.00 | 0.00 | 0.00 | 72 | 1008.1 |
| 20260504025634 | 63 | 110 | 0.0 | 0.0 | 0.00 | 0.00 | 0.00 | 71 | 1008.2 |
| 20260504025131 | 64 | 110 | 0.0 | 0.0 | 0.00 | 0.00 | 0.00 | 70 | 1008.4 |
| 20260504024628 | 64 | 110 | 0.0 | 0.0 | 0.00 | 0.00 | 0.00 | 68 | 1008.3 |
| 20260504024125 | 64 | 110 | 0.0 | 0.0 | 0.00 | 0.00 | 0.00 | 68 | 1008.0 |
| 20260504023621 | 65 | 110 | 0.0 | 0.0 | 0.00 | 0.00 | 0.00 | 67 | 1007.9 |
| 20260504023117 | 65 | 110 | 0.0 | 2.0 | 0.00 | 0.00 | 0.00 | 66 | 1008.1 |
| 20260504022614 | 66 | 110 | 0.0 | 0.0 | 0.00 | 0.00 | 0.00 | 64 | 1008.0 |
| 20260504022110 | 66 | 110 | 0.0 | 0.0 | 0.00 | 0.00 | 0.00 | 64 | 1008.0 |
| 20260504021608 | 66 | 110 | 0.0 | 0.0 | 0.00 | 0.00 | 0.00 | 64 | 1008.1 |
| 20260504021104 | 67 | 110 | 0.0 | 1.0 | 0.00 | 0.00 | 0.00 | 62 | 1008.1 |
| 20260504020602 | 68 | 110 | 0.0 | 0.0 | 0.00 | 0.00 | 0.00 | 58 | 1008.2 |
| 20260504020057 | 68 | 110 | 0.0 | 1.0 | 0.00 | 0.00 | 0.00 | 57 | 1008.3 |
| 20260504015554 | 69 | 110 | 0.0 | 1.0 | 0.00 | 0.00 | 0.00 | 58 | 1008.4 |
| 20260504015050 | 69 | 58 | 0.0 | 0.0 | 0.00 | 0.00 | 0.00 | 53 | 1008.2 |
| 20260504014546 | 69 | 58 | 0.0 | 0.0 | 0.00 | 0.00 | 0.00 | 53 | 1007.8 |
| 20260504014044 | 69 | 58 | 0.0 | 1.0 | 0.00 | 0.00 | 0.00 | 57 | 1008.1 |
| 20260504013541 | 69 | 58 | 0.0 | 0.0 | 0.00 | 0.00 | 0.00 | 57 | 1008.3 |
| 20260504013038 | 70 | 58 | 0.0 | 1.0 | 0.00 | 0.00 | 0.00 | 56 | 1008.1 |
| 20260504012536 | 71 | 56 | 0.0 | 0.0 | 0.00 | 0.00 | 0.00 | 50 | 1008.0 |
| 20260504012033 | 72 | 55 | 0.0 | 1.0 | 0.00 | 0.00 | 0.00 | 49 | 1007.8 |
| 20260504011530 | 72 | 55 | 1.0 | 1.0 | 0.00 | 0.00 | 0.00 | 49 | 1008.2 |
| 20260504011026 | 73 | 55 | 0.0 | 0.0 | 0.00 | 0.00 | 0.00 | 48 | 1008.0 |
| 20260504010522 | 73 | 55 | 0.0 | 0.0 | 0.00 | 0.00 | 0.00 | 48 | 1007.9 |
| 20260504010018 | 74 | 55 | 0.0 | 0.0 | 0.00 | 0.00 | 0.00 | 46 | 1007.8 |
| 20260504005515 | 74 | 55 | 0.0 | 0.0 | 0.00 | 0.00 | 0.00 | 44 | 1007.5 |
| 20260504005012 | 75 | 55 | 0.0 | 0.0 | 0.00 | 0.00 | 0.00 | 43 | 1007.9 |